| time (UTC) | temp F | wind direction | speed knots | gust knots | rain 1hr in | rain 24hr in | rain mn in | humidity % | barometer mb |
| 20260505031427 | 68 | 82 | 0.9 | 2.6 | 0.00 | 0.00 | 0.00 | 81 | 1016.2 |
| 20260505030428 | 68 | 82 | 0.9 | 3.5 | 0.00 | 0.00 | 0.00 | 81 | 1016.2 |
| 20260505025428 | 69 | 80 | 0.9 | 2.6 | 0.00 | 0.00 | 0.00 | 80 | 1016.2 |
| 20260505024427 | 69 | 81 | 0.9 | 3.5 | 0.00 | 0.00 | 0.00 | 79 | 1016.2 |
| 20260505023427 | 70 | 81 | 1.7 | 4.3 | 0.00 | 0.00 | 0.00 | 78 | 1016.1 |
| 20260505022420 | 70 | 94 | 1.7 | 3.5 | 0.00 | 0.00 | 0.00 | 78 | 1016.2 |
| 20260505021902 | 71 | 81 | 2.6 | 7.0 | 0.00 | 0.00 | 0.00 | 76 | 1016.0 |
| 20260505020419 | 71 | 100 | 2.6 | 7.8 | 0.00 | 0.00 | 0.00 | 76 | 1016.1 |
| 20260505015408 | 71 | 87 | 2.6 | 4.3 | 0.00 | 0.00 | 0.00 | 76 | 1016.0 |
| 20260505014402 | 71 | 67 | 1.7 | 3.5 | 0.00 | 0.00 | 0.00 | 75 | 1016.0 |
| 20260505013400 | 71 | 108 | 2.6 | 7.0 | 0.00 | 0.00 | 0.00 | 74 | 1015.8 |
| 20260505012350 | 71 | 85 | 1.7 | 4.3 | 0.00 | 0.00 | 0.00 | 73 | 1015.7 |
| 20260505011355 | 72 | 104 | 1.7 | 5.2 | 0.00 | 0.00 | 0.00 | 73 | 1015.5 |
| 20260505010344 | 72 | 89 | 2.6 | 7.8 | 0.00 | 0.00 | 0.00 | 72 | 1015.6 |
| 20260505005341 | 73 | 102 | 3.5 | 7.0 | 0.00 | 0.00 | 0.00 | 70 | 1015.6 |
| 20260505004338 | 73 | 75 | 2.6 | 7.0 | 0.00 | 0.00 | 0.00 | 69 | 1015.6 |
| 20260505003341 | 73 | 88 | 2.6 | 7.8 | 0.00 | 0.00 | 0.00 | 69 | 1015.4 |
| 20260505002334 | 74 | 113 | 3.5 | 8.7 | 0.00 | 0.00 | 0.00 | 68 | 1015.1 |
| 20260505001335 | 74 | 116 | 4.3 | 8.7 | 0.00 | 0.00 | 0.00 | 67 | 1015.0 |
| 20260505000815 | 75 | 109 | 5.2 | 11.3 | 0.00 | 0.00 | 0.00 | 66 | 1015.1 |
| 20260504235829 | 75 | 42 | 4.3 | 9.6 | 0.00 | 0.00 | 0.00 | 65 | 1015.0 |
| 20260504234322 | 76 | 98 | 3.5 | 11.3 | 0.00 | 0.00 | 0.00 | 64 | 1014.7 |
| 20260504233319 | 76 | 93 | 5.2 | 11.3 | 0.00 | 0.00 | 0.00 | 64 | 1014.5 |
| 20260504232321 | 77 | 106 | 5.2 | 9.6 | 0.00 | 0.00 | 0.00 | 63 | 1014.6 |
| 20260504231759 | 77 | 125 | 5.2 | 11.3 | 0.00 | 0.00 | 0.00 | 62 | 1014.5 |
| 20260504231237 | 78 | 90 | 3.5 | 11.3 | 0.00 | 0.00 | 0.00 | 61 | 1014.5 |
| 20260504225322 | 78 | 96 | 5.2 | 13.9 | 0.00 | 0.00 | 0.00 | 61 | 1014.5 |
| 20260504224322 | 78 | 120 | 6.1 | 14.8 | 0.00 | 0.00 | 0.00 | 61 | 1014.6 |
| 20260504223317 | 78 | 106 | 5.2 | 13.0 | 0.00 | 0.00 | 0.00 | 61 | 1014.7 |
| 20260504222318 | 78 | 113 | 6.1 | 13.0 | 0.00 | 0.00 | 0.00 | 60 | 1014.6 |
| 20260504221317 | 80 | 94 | 7.0 | 14.8 | 0.00 | 0.00 | 0.00 | 58 | 1014.5 |
| 20260504220317 | 79 | 121 | 7.0 | 14.8 | 0.00 | 0.00 | 0.00 | 59 | 1014.4 |
| 20260504215319 | 80 | 89 | 6.1 | 13.9 | 0.00 | 0.00 | 0.00 | 57 | 1014.5 |
| 20260504214316 | 80 | 121 | 6.1 | 14.8 | 0.00 | 0.00 | 0.00 | 56 | 1014.4 |
| 20260504213316 | 80 | 64 | 6.1 | 13.0 | 0.00 | 0.00 | 0.00 | 59 | 1014.4 |
| 20260504212316 | 81 | 112 | 7.0 | 13.9 | 0.00 | 0.00 | 0.00 | 57 | 1014.3 |
| 20260504211315 | 82 | 102 | 7.0 | 13.9 | 0.00 | 0.00 | 0.00 | 55 | 1014.4 |
| 20260504210315 | 81 | 99 | 6.1 | 13.0 | 0.00 | 0.00 | 0.00 | 56 | 1014.4 |
| 20260504205313 | 81 | 129 | 6.1 | 12.2 | 0.00 | 0.00 | 0.00 | 57 | 1014.4 |
| 20260504204314 | 81 | 115 | 7.0 | 13.9 | 0.00 | 0.00 | 0.00 | 56 | 1014.5 |
| 20260504203316 | 82 | 95 | 7.0 | 13.0 | 0.00 | 0.00 | 0.00 | 54 | 1014.5 |
| 20260504202300 | 81 | 89 | 6.1 | 13.9 | 0.00 | 0.00 | 0.00 | 56 | 1014.6 |
| 20260504201740 | 82 | 116 | 7.0 | 13.0 | 0.00 | 0.00 | 0.00 | 54 | 1014.7 |
| 20260504200257 | 83 | 92 | 7.0 | 13.9 | 0.00 | 0.00 | 0.00 | 54 | 1014.7 |
| 20260504195258 | 83 | 103 | 7.0 | 15.6 | 0.00 | 0.00 | 0.00 | 54 | 1014.9 |
| 20260504194257 | 81 | 94 | 6.1 | 15.6 | 0.00 | 0.00 | 0.00 | 56 | 1015.0 |
| 20260504193258 | 81 | 89 | 6.1 | 14.8 | 0.00 | 0.00 | 0.00 | 55 | 1015.0 |
| 20260504192258 | 81 | 118 | 6.1 | 15.6 | 0.00 | 0.00 | 0.00 | 55 | 1015.1 |
| 20260504191259 | 81 | 108 | 7.8 | 14.8 | 0.00 | 0.00 | 0.00 | 55 | 1015.2 |
| 20260504190258 | 83 | 102 | 6.1 | 13.9 | 0.00 | 0.00 | 0.00 | 53 | 1015.3 |
| 20260504185258 | 83 | 109 | 5.2 | 10.4 | 0.00 | 0.00 | 0.00 | 53 | 1015.4 |
| 20260504184258 | 84 | 127 | 5.2 | 13.9 | 0.00 | 0.00 | 0.00 | 52 | 1015.7 |
| 20260504183257 | 84 | 84 | 5.2 | 12.2 | 0.00 | 0.00 | 0.00 | 52 | 1015.6 |
| 20260504182259 | 81 | 123 | 6.1 | 13.9 | 0.00 | 0.00 | 0.00 | 56 | 1015.9 |
| 20260504181258 | 82 | 116 | 5.2 | 13.9 | 0.00 | 0.00 | 0.00 | 54 | 1015.9 |
| 20260504180731 | 82 | 138 | 5.2 | 12.2 | 0.00 | 0.00 | 0.00 | 54 | 1016.1 |
| 20260504175259 | 83 | 64 | 5.2 | 14.8 | 0.00 | 0.00 | 0.00 | 53 | 1016.2 |
| 20260504174734 | 81 | 101 | 4.3 | 10.4 | 0.00 | 0.00 | 0.00 | 54 | 1016.2 |
| 20260504173249 | 81 | 50 | 4.3 | 11.3 | 0.00 | 0.00 | 0.00 | 55 | 1016.2 |
| 20260504172244 | 82 | 107 | 5.2 | 11.3 | 0.00 | 0.00 | 0.00 | 53 | 1016.3 |
| 20260504171233 | 84 | 46 | 6.1 | 13.9 | 0.00 | 0.00 | 0.00 | 51 | 1016.5 |
| 20260504170231 | 84 | 129 | 6.1 | 12.2 | 0.00 | 0.00 | 0.00 | 49 | 1016.6 |
| 20260504160215 | 82 | 123 | 6.1 | 11.3 | 0.00 | 0.00 | 0.00 | 54 | 1017.1 |
| 20260504150214 | 82 | 54 | 6.1 | 13.9 | 0.00 | 0.00 | 0.00 | 55 | 1017.2 |
| 20260504141210 | 78 | 29 | 7.0 | 13.0 | 0.00 | 0.00 | 0.00 | 63 | 1017.1 |
| 20260504140210 | 78 | 19 | 6.1 | 15.6 | 0.00 | 0.00 | 0.00 | 63 | 1017.0 |
| 20260504130159 | 73 | 56 | 5.2 | 11.3 | 0.00 | 0.00 | 0.00 | 72 | 1016.7 |
| 20260504120151 | 68 | 40 | 3.5 | 7.8 | 0.00 | 0.00 | 0.00 | 83 | 1016.4 |
| 20260504110144 | 65 | 26 | 3.5 | 7.0 | 0.00 | 0.00 | 0.00 | 88 | 1015.8 |
| 20260504100142 | 65 | 350 | 2.6 | 4.3 | 0.00 | 0.00 | 0.00 | 88 | 1015.4 |
| 20260504090120 | 67 | 5 | 3.5 | 7.0 | 0.00 | 0.00 | 0.00 | 83 | 1015.3 |
| 20260504081558 | 68 | 28 | 3.5 | 7.0 | 0.00 | 0.00 | 0.00 | 84 | 1015.4 |
| 20260504080118 | 68 | 350 | 2.6 | 7.8 | 0.00 | 0.00 | 0.00 | 84 | 1015.6 |
| 20260504070119 | 67 | 356 | 2.6 | 4.3 | 0.00 | 0.00 | 0.00 | 84 | 1015.5 |
| 20260504060107 | 68 | 34 | 2.6 | 6.1 | 0.00 | 0.00 | 0.00 | 81 | 1015.6 |
| 20260504044059 | 69 | 52 | 1.7 | 4.3 | 0.00 | 0.00 | 0.00 | 82 | 1017.1 |
| 20260504043100 | 69 | 52 | 1.7 | 4.3 | 0.00 | 0.00 | 0.00 | 81 | 1017.1 |
| 20260504042103 | 69 | 52 | 1.7 | 3.5 | 0.00 | 0.00 | 0.00 | 81 | 1017.1 |
| 20260504041053 | 69 | 52 | 2.6 | 4.3 | 0.00 | 0.00 | 0.00 | 80 | 1017.1 |
| 20260504040531 | 70 | 52 | 1.7 | 3.5 | 0.00 | 0.00 | 0.00 | 79 | 1017.1 |
| 20260504035057 | 69 | 54 | 2.6 | 4.3 | 0.00 | 0.00 | 0.12 | 80 | 1017.2 |
| 20260504034053 | 69 | 54 | 2.6 | 3.5 | 0.00 | 0.00 | 0.12 | 80 | 1017.1 |
| 20260504033056 | 69 | 55 | 1.7 | 3.5 | 0.00 | 0.00 | 0.12 | 80 | 1017.1 |